EZY27UZ LGSA-EGKK

Flight info

Callsign EZY27UZ
Flight time 3h 45m
Altitude 34000
Route SOKRI2H SOKRI UY151 DDM UM619 YNN UL611 TUMBO DCT OVVER DCT RODON DCT VAKSU DCT SPL DCT NAKIT/N0443F360 DCT PEVAL DCT BABAG DCT SUMIR DCT SAFFA DCT ELMUR DCT RIPUS DCT DITON DCT HOC DCT LUL DCT RLP DCT ROTSI DCT KOTUN DCT NINAL DCT KESAX DCT KUNAV KUNAV1G
Aircraft A320/M-SDE2E3FGHIJ1RWXYZ/LB1

Departure

Time 2026-05-06 14:15
Airport Chania International Airport (LGSA)

Arrival

Time 2026-05-06 18:00
Airport London Gatwick Airport (EGKK)
Time Latitude Longitude Altitude Speed Heading
2026-05-06 14:04 35.53884 24.14015 498 ft 0 kts 21°
2026-05-06 14:06 35.53862 24.14003 498 ft 4 kts 28°
2026-05-06 14:06 35.53839 24.13990 498 ft 4 kts
2026-05-06 14:06 35.53816 24.13993 498 ft 4 kts 340°
2026-05-06 14:07 35.53795 24.14011 498 ft 4 kts 303°
2026-05-06 14:07 35.53785 24.14036 498 ft 4 kts 291°
2026-05-06 14:07 35.53775 24.14067 494 ft 4 kts 291°
2026-05-06 14:07 35.53771 24.14079 498 ft 0 kts 291°
2026-05-06 14:10 35.53772 24.14075 498 ft 3 kts 291°
2026-05-06 14:10 35.53774 24.14014 498 ft 9 kts 225°
2026-05-06 14:11 35.53725 24.13982 492 ft 7 kts 206°
2026-05-06 14:11 35.53702 24.13916 494 ft 15 kts 282°
2026-05-06 14:11 35.53742 24.13783 491 ft 17 kts 291°
2026-05-06 14:11 35.53786 24.13645 494 ft 18 kts 291°
2026-05-06 14:12 35.53834 24.13499 499 ft 19 kts 292°
2026-05-06 14:12 35.53885 24.13345 492 ft 20 kts 292°
2026-05-06 14:12 35.53891 24.13222 491 ft 13 kts 217°
2026-05-06 14:12 35.53806 24.13180 498 ft 13 kts 200°
2026-05-06 14:13 35.53741 24.13226 495 ft 13 kts 115°
2026-05-06 14:13 35.53702 24.13345 489 ft 16 kts 112°
2026-05-06 14:13 35.53666 24.13453 491 ft 2 kts 111°
2026-05-06 14:13 35.53664 24.13460 498 ft 0 kts 111°
2026-05-06 14:14 35.53664 24.13461 498 ft 0 kts 111°
2026-05-06 14:14 35.53660 24.13472 498 ft 6 kts 111°
2026-05-06 14:14 35.53620 24.13594 499 ft 40 kts 111°
2026-05-06 14:14 35.53429 24.14188 492 ft 107 kts 111°
2026-05-06 14:15 35.53088 24.15243 483 ft 157 kts 111°
2026-05-06 14:15 35.52691 24.16520 1119 ft 150 kts 110°
2026-05-06 14:15 35.52336 24.17689 1830 ft 144 kts 111°
2026-05-06 14:15 35.51975 24.18891 2162 ft 160 kts 105°
2026-05-06 14:16 35.51793 24.20322 2367 ft 181 kts 91°
2026-05-06 14:16 35.51958 24.21946 2520 ft 205 kts 75°
2026-05-06 14:16 35.52597 24.23605 2845 ft 222 kts 54°
2026-05-06 14:16 35.53679 24.24978 3446 ft 228 kts 36°
2026-05-06 14:17 35.55168 24.25806 3809 ft 245 kts
2026-05-06 14:17 35.56863 24.25601 4424 ft 248 kts 335°
2026-05-06 14:17 35.58245 24.24374 5145 ft 247 kts 309°
2026-05-06 14:17 35.59328 24.22731 5888 ft 248 kts 310°
2026-05-06 14:18 35.60466 24.21125 6627 ft 250 kts 311°
2026-05-06 14:18 35.61634 24.19527 7341 ft 253 kts 312°
2026-05-06 14:18 35.62817 24.17914 8065 ft 255 kts 313°
2026-05-06 14:18 35.64006 24.16291 8762 ft 257 kts 313°
2026-05-06 14:19 35.65205 24.14641 9439 ft 260 kts 313°
2026-05-06 14:19 35.66408 24.12973 10111 ft 262 kts 313°
2026-05-06 14:19 35.67615 24.11292 10799 ft 262 kts 312°
2026-05-06 14:19 35.68823 24.09605 11458 ft 263 kts 312°
2026-05-06 14:20 35.70039 24.07903 12091 ft 265 kts 312°
2026-05-06 14:20 35.71254 24.06195 12734 ft 266 kts 312°
2026-05-06 14:20 35.72461 24.04501 13341 ft 267 kts 312°
2026-05-06 14:20 35.73693 24.02777 13946 ft 269 kts 312°
2026-05-06 14:21 35.74931 24.01045 14532 ft 270 kts 312°
2026-05-06 14:21 35.76174 23.99304 15116 ft 271 kts 312°
2026-05-06 14:21 35.77478 23.97617 15689 ft 273 kts 317°
2026-05-06 14:21 35.78860 23.96013 16253 ft 274 kts 317°
2026-05-06 14:22 35.80250 23.94401 16794 ft 275 kts 316°
2026-05-06 14:22 35.81650 23.92778 17326 ft 277 kts 316°
2026-05-06 14:22 35.83051 23.91154 17866 ft 278 kts 316°
2026-05-06 14:22 35.84465 23.89513 18386 ft 279 kts 316°
2026-05-06 14:23 35.85882 23.87862 18893 ft 281 kts 316°
2026-05-06 14:23 35.87305 23.86199 19395 ft 283 kts 316°
2026-05-06 14:23 35.88735 23.84527 19889 ft 284 kts 316°
2026-05-06 14:23 35.90172 23.82845 20340 ft 286 kts 316°
2026-05-06 14:24 35.91620 23.81151 20766 ft 289 kts 316°
2026-05-06 14:24 35.92589 23.80016 21055 ft 290 kts 317°
2026-05-06 14:24 35.94058 23.78297 21499 ft 292 kts 317°
2026-05-06 14:24 35.95534 23.76571 21927 ft 293 kts 317°
2026-05-06 14:25 35.97052 23.74872 22316 ft 296 kts 322°
2026-05-06 14:25 35.98689 23.73312 22715 ft 298 kts 322°
2026-05-06 14:25 36.00334 23.71740 23081 ft 302 kts 322°
2026-05-06 14:25 36.02025 23.70120 23204 ft 313 kts 322°
2026-05-06 14:26 36.03773 23.68440 23337 ft 324 kts 322°
2026-05-06 14:26 36.05579 23.66701 23467 ft 334 kts 322°
2026-05-06 14:26 36.07443 23.64906 23591 ft 345 kts 322°
2026-05-06 14:26 36.09366 23.63055 23730 ft 355 kts 322°
2026-05-06 14:27 36.11342 23.61151 23844 ft 364 kts 322°
2026-05-06 14:27 36.13365 23.59203 23973 ft 373 kts 322°
2026-05-06 14:27 36.15433 23.57210 24099 ft 381 kts 322°
2026-05-06 14:27 36.17543 23.55175 24259 ft 387 kts 322°
2026-05-06 14:28 36.19678 23.53111 24530 ft 391 kts 322°
2026-05-06 14:28 36.21825 23.51030 24834 ft 393 kts 322°
2026-05-06 14:28 36.24033 23.49026 25145 ft 395 kts 328°
2026-05-06 14:28 36.26490 23.47485 25438 ft 398 kts 337°
2026-05-06 14:29 36.29151 23.46493 25708 ft 402 kts 347°
2026-05-06 14:29 36.31882 23.45919 25975 ft 405 kts 348°
2026-05-06 14:29 36.34711 23.45346 26256 ft 407 kts 348°
2026-05-06 14:29 36.37476 23.44786 26532 ft 409 kts 348°
2026-05-06 14:30 36.40289 23.44210 26804 ft 411 kts 348°
2026-05-06 14:30 36.43115 23.43624 27072 ft 413 kts 348°
2026-05-06 14:30 36.45950 23.43036 27339 ft 414 kts 348°
2026-05-06 14:30 36.48804 23.42445 27599 ft 416 kts 348°
2026-05-06 14:31 36.51667 23.41853 27854 ft 418 kts 348°
2026-05-06 14:31 36.54541 23.41262 28106 ft 420 kts 348°
2026-05-06 14:31 36.57426 23.40669 28342 ft 422 kts 348°
2026-05-06 14:31 36.60322 23.40070 28572 ft 423 kts 348°
2026-05-06 14:32 36.63236 23.39463 28812 ft 425 kts 348°
2026-05-06 14:32 36.66160 23.38851 29041 ft 426 kts 348°
2026-05-06 14:32 36.69082 23.38240 29255 ft 428 kts 348°
2026-05-06 14:32 36.72027 23.37627 29458 ft 429 kts 348°
2026-05-06 14:33 36.74979 23.37014 29676 ft 431 kts 348°
2026-05-06 14:33 36.77938 23.36405 29876 ft 432 kts 348°
2026-05-06 14:33 36.80907 23.35794 30140 ft 432 kts 348°
2026-05-06 14:33 36.83870 23.35179 30432 ft 431 kts 347°
2026-05-06 14:34 36.86825 23.34561 30712 ft 430 kts 347°
2026-05-06 14:34 36.89776 23.33940 30997 ft 429 kts 347°
2026-05-06 14:34 36.92714 23.33323 31281 ft 428 kts 347°
2026-05-06 14:34 36.95640 23.32712 31559 ft 427 kts 347°
2026-05-06 14:35 36.98572 23.32101 31819 ft 426 kts 347°
2026-05-06 14:35 37.01494 23.31490 32074 ft 425 kts 347°
2026-05-06 14:35 37.04409 23.30877 32335 ft 425 kts 347°
2026-05-06 14:35 37.07323 23.30264 32597 ft 424 kts 347°
2026-05-06 14:36 37.10228 23.29651 32841 ft 423 kts 347°
2026-05-06 14:36 37.13127 23.29039 33087 ft 422 kts 347°
2026-05-06 14:36 37.16023 23.28428 33341 ft 421 kts 347°
2026-05-06 14:36 37.18904 23.27822 33599 ft 420 kts 347°
2026-05-06 14:37 37.21794 23.27216 33831 ft 420 kts 347°
2026-05-06 14:37 37.24671 23.26611 34054 ft 419 kts 347°
2026-05-06 14:37 37.27548 23.26005 34276 ft 419 kts 347°
2026-05-06 14:37 37.30418 23.25400 34502 ft 418 kts 347°
2026-05-06 14:38 37.33286 23.24794 34708 ft 417 kts 347°
2026-05-06 14:38 37.36108 23.24198 34912 ft 417 kts 347°
2026-05-06 14:38 37.38965 23.23590 35113 ft 416 kts 347°
2026-05-06 14:38 37.41816 23.22983 35299 ft 415 kts 347°
2026-05-06 14:39 37.44652 23.22323 35472 ft 413 kts 342°
2026-05-06 14:39 37.47361 23.21176 35638 ft 409 kts 333°
2026-05-06 14:39 37.49853 23.19487 35792 ft 406 kts 324°
2026-05-06 14:39 37.52099 23.17348 35961 ft 404 kts 319°
2026-05-06 14:40 37.56475 23.12905 36060 ft 404 kts 320°
2026-05-06 14:40 37.60847 23.08473 36062 ft 403 kts 320°
2026-05-06 14:41 37.65221 23.04045 36065 ft 403 kts 319°
2026-05-06 14:41 37.69595 22.99605 36060 ft 404 kts 319°
2026-05-06 14:42 37.73973 22.95143 36069 ft 404 kts 319°
2026-05-06 14:42 37.78356 22.90675 36068 ft 405 kts 319°
2026-05-06 14:43 37.82733 22.86193 36071 ft 405 kts 319°
2026-05-06 14:43 37.87113 22.81708 36064 ft 405 kts 319°
2026-05-06 14:44 37.91488 22.77219 36059 ft 405 kts 319°
2026-05-06 14:45 37.98053 22.70465 36062 ft 405 kts 319°
2026-05-06 14:45 38.02432 22.65955 36068 ft 405 kts 319°
2026-05-06 14:46 38.06809 22.61443 36075 ft 406 kts 319°
2026-05-06 14:46 38.11187 22.56935 36077 ft 405 kts 319°
2026-05-06 14:47 38.15558 22.52417 36074 ft 405 kts 319°
2026-05-06 14:47 38.19900 22.47918 36071 ft 405 kts 319°
2026-05-06 14:48 38.24273 22.43382 36070 ft 406 kts 319°
2026-05-06 14:48 38.28649 22.38833 36071 ft 406 kts 319°
2026-05-06 14:49 38.33026 22.34280 36075 ft 406 kts 319°
2026-05-06 14:49 38.37402 22.29722 36079 ft 407 kts 319°
2026-05-06 14:50 38.41778 22.25155 36082 ft 406 kts 319°
2026-05-06 14:50 38.46146 22.20587 36083 ft 406 kts 319°
2026-05-06 14:51 38.50512 22.16012 36082 ft 406 kts 319°
2026-05-06 14:51 38.54874 22.11426 36081 ft 406 kts 319°
2026-05-06 14:52 38.59237 22.06843 36083 ft 406 kts 319°
2026-05-06 14:52 38.63597 22.02262 36080 ft 406 kts 319°
2026-05-06 14:53 38.67949 21.97668 36077 ft 405 kts 318°
2026-05-06 14:53 38.72304 21.93070 36066 ft 406 kts 318°
2026-05-06 14:54 38.76663 21.88460 36069 ft 407 kts 318°
2026-05-06 14:54 38.81026 21.83838 36070 ft 406 kts 318°
2026-05-06 14:55 38.85351 21.79243 36070 ft 406 kts 318°
2026-05-06 14:55 38.89712 21.74612 36070 ft 407 kts 318°
2026-05-06 14:56 38.94076 21.69969 36066 ft 407 kts 318°
2026-05-06 14:56 38.98435 21.65320 36068 ft 407 kts 318°
2026-05-06 14:57 39.02794 21.60665 36067 ft 407 kts 318°
2026-05-06 14:57 39.07154 21.55997 36073 ft 407 kts 318°
2026-05-06 14:58 39.11508 21.51330 36073 ft 407 kts 318°
2026-05-06 14:58 39.15856 21.46658 36078 ft 407 kts 318°
2026-05-06 14:59 39.20199 21.41986 36081 ft 407 kts 318°
2026-05-06 14:59 39.24549 21.37311 36084 ft 407 kts 318°
2026-05-06 15:00 39.28894 21.32632 36083 ft 407 kts 318°
2026-05-06 15:00 39.33237 21.27937 36085 ft 407 kts 318°
2026-05-06 15:01 39.37547 21.23263 36086 ft 407 kts 318°
2026-05-06 15:01 39.41883 21.18551 36089 ft 407 kts 318°
2026-05-06 15:02 39.46223 21.13836 36092 ft 408 kts 318°
2026-05-06 15:02 39.50563 21.09112 36095 ft 408 kts 317°
2026-05-06 15:03 39.54899 21.04382 36095 ft 407 kts 317°
2026-05-06 15:03 39.59269 20.99618 36096 ft 408 kts 317°
2026-05-06 15:04 39.63580 20.94902 36096 ft 408 kts 317°
2026-05-06 15:04 39.67922 20.90146 36099 ft 409 kts 317°
2026-05-06 15:05 39.72267 20.85374 36095 ft 410 kts 317°
2026-05-06 15:05 39.76628 20.80582 36089 ft 411 kts 317°
2026-05-06 15:06 39.80994 20.75770 36092 ft 412 kts 317°
2026-05-06 15:06 39.85368 20.70948 36091 ft 412 kts 317°
2026-05-06 15:07 39.89747 20.66118 36094 ft 413 kts 317°
2026-05-06 15:07 39.94129 20.61270 36094 ft 414 kts 317°
2026-05-06 15:08 39.98516 20.56412 36098 ft 414 kts 317°
2026-05-06 15:08 40.02898 20.51539 36096 ft 414 kts 316°
2026-05-06 15:09 40.07284 20.46671 36095 ft 414 kts 318°
2026-05-06 15:09 40.11876 20.42089 36097 ft 417 kts 321°
2026-05-06 15:10 40.16596 20.37685 36097 ft 417 kts 321°
2026-05-06 15:10 40.21300 20.33255 36099 ft 417 kts 321°
2026-05-06 15:11 40.25962 20.28756 36100 ft 416 kts 320°
2026-05-06 15:11 40.30606 20.24225 36101 ft 416 kts 320°
2026-05-06 15:12 40.35259 20.19706 36101 ft 417 kts 320°
2026-05-06 15:12 40.39919 20.15186 36104 ft 417 kts 320°
2026-05-06 15:13 40.43786 20.11416 36105 ft 417 kts 320°
2026-05-06 15:13 40.48437 20.06889 36101 ft 416 kts 320°
2026-05-06 15:14 40.53088 20.02351 36105 ft 417 kts 320°
2026-05-06 15:14 40.57736 19.97801 36107 ft 417 kts 320°
2026-05-06 15:15 40.62382 19.93234 36101 ft 417 kts 320°
2026-05-06 15:15 40.67027 19.88670 36097 ft 417 kts 320°
2026-05-06 15:16 40.71675 19.84100 36095 ft 417 kts 320°
2026-05-06 15:16 40.76322 19.79523 36099 ft 417 kts 320°
2026-05-06 15:17 40.80974 19.74928 36097 ft 417 kts 320°
2026-05-06 15:17 40.85618 19.70334 36093 ft 417 kts 320°
2026-05-06 15:18 40.90261 19.65739 36092 ft 417 kts 320°
2026-05-06 15:18 40.94896 19.61131 36088 ft 417 kts 320°
2026-05-06 15:19 40.99536 19.56511 36086 ft 417 kts 320°
2026-05-06 15:19 41.04170 19.51894 36084 ft 417 kts 320°
2026-05-06 15:20 41.08807 19.47272 36086 ft 417 kts 320°
2026-05-06 15:20 41.13447 19.42637 36088 ft 418 kts 320°
2026-05-06 15:21 41.18084 19.37992 36088 ft 417 kts 320°
2026-05-06 15:21 41.22716 19.33339 36088 ft 418 kts 319°
2026-05-06 15:22 41.27342 19.28685 36083 ft 417 kts 319°
2026-05-06 15:22 41.31929 19.24059 36076 ft 417 kts 319°
2026-05-06 15:23 41.36547 19.19392 36076 ft 417 kts 319°
2026-05-06 15:23 41.41169 19.14727 36076 ft 417 kts 319°
2026-05-06 15:24 41.45791 19.10048 36079 ft 417 kts 319°
2026-05-06 15:24 41.50411 19.05350 36085 ft 418 kts 319°
2026-05-06 15:25 41.55024 19.00637 36088 ft 417 kts 319°
2026-05-06 15:25 41.59628 18.95913 36087 ft 418 kts 319°
2026-05-06 15:26 41.64232 18.91188 36087 ft 417 kts 319°
2026-05-06 15:26 41.68833 18.86454 36085 ft 417 kts 319°
2026-05-06 15:27 41.73426 18.81715 36083 ft 417 kts 319°
2026-05-06 15:27 41.78023 18.76973 36080 ft 417 kts 319°
2026-05-06 15:28 41.82622 18.72224 36078 ft 418 kts 319°
2026-05-06 15:28 41.87226 18.67463 36079 ft 418 kts 319°
2026-05-06 15:29 41.91820 18.62692 36077 ft 417 kts 319°
2026-05-06 15:29 41.96411 18.57917 36074 ft 418 kts 319°
2026-05-06 15:30 42.00985 18.53110 36072 ft 416 kts 315°
2026-05-06 15:30 42.04980 18.47550 36071 ft 413 kts 309°
2026-05-06 15:31 42.08873 18.41918 36068 ft 414 kts 310°
2026-05-06 15:31 42.12795 18.36238 36070 ft 414 kts 309°
2026-05-06 15:32 42.18665 18.27705 36071 ft 414 kts 309°
2026-05-06 15:32 42.22575 18.22016 36072 ft 413 kts 309°
2026-05-06 15:33 42.26482 18.16316 36066 ft 414 kts 309°
2026-05-06 15:33 42.30386 18.10610 36064 ft 413 kts 309°
2026-05-06 15:34 42.34282 18.04899 36059 ft 413 kts 309°
2026-05-06 15:34 42.38178 17.99176 36054 ft 414 kts 309°
2026-05-06 15:35 42.42069 17.93443 36059 ft 414 kts 309°
2026-05-06 15:35 42.45964 17.87707 36058 ft 414 kts 309°
2026-05-06 15:36 42.49848 17.81954 36060 ft 414 kts 309°
2026-05-06 15:36 42.53734 17.76198 36065 ft 414 kts 309°
2026-05-06 15:37 42.57617 17.70444 36067 ft 413 kts 309°
2026-05-06 15:37 42.61493 17.64689 36065 ft 413 kts 309°
2026-05-06 15:38 42.65363 17.58919 36061 ft 413 kts 309°
2026-05-06 15:38 42.69236 17.53152 36059 ft 413 kts 308°
2026-05-06 15:39 42.73074 17.47421 36057 ft 413 kts 308°
2026-05-06 15:39 42.76933 17.41639 36052 ft 413 kts 308°
2026-05-06 15:40 42.80812 17.35807 36055 ft 413 kts 308°
2026-05-06 15:40 42.84644 17.30051 36051 ft 413 kts 308°
2026-05-06 15:41 42.88496 17.24251 36047 ft 412 kts 308°
2026-05-06 15:41 42.92341 17.18443 36050 ft 412 kts 308°
2026-05-06 15:42 42.96197 17.12601 36056 ft 417 kts 308°
2026-05-06 15:42 43.00070 17.06721 36066 ft 416 kts 308°
2026-05-06 15:43 43.03933 17.00859 36065 ft 414 kts 308°
2026-05-06 15:43 43.07782 16.95002 36066 ft 414 kts 308°
2026-05-06 15:44 43.11623 16.89150 36065 ft 413 kts 308°
2026-05-06 15:44 43.15458 16.83297 36060 ft 413 kts 307°
2026-05-06 15:45 43.19286 16.77432 36062 ft 413 kts 307°
2026-05-06 15:45 43.23081 16.71601 36058 ft 413 kts 307°
2026-05-06 15:46 43.26903 16.65726 36052 ft 413 kts 307°
2026-05-06 15:46 43.30727 16.59843 36048 ft 413 kts 307°
2026-05-06 15:47 43.34541 16.53949 36047 ft 413 kts 307°
2026-05-06 15:47 43.38358 16.48038 36049 ft 413 kts 307°
2026-05-06 15:48 43.42168 16.42124 36033 ft 413 kts 307°
2026-05-06 15:48 43.45979 16.36205 36026 ft 413 kts 306°
2026-05-06 15:49 43.49788 16.30277 36021 ft 413 kts 306°
2026-05-06 15:49 43.53551 16.24285 36018 ft 413 kts 305°
2026-05-06 15:50 43.57268 16.18244 36016 ft 413 kts 305°
2026-05-06 15:50 43.60987 16.12196 36012 ft 413 kts 305°
2026-05-06 15:51 43.64714 16.06157 36014 ft 414 kts 305°
2026-05-06 15:51 43.68449 16.00115 36011 ft 414 kts 305°
2026-05-06 15:52 43.72175 15.94055 36003 ft 414 kts 304°
2026-05-06 15:52 43.75871 15.88023 36006 ft 414 kts 304°
2026-05-06 15:53 43.79595 15.81943 36000 ft 414 kts 305°
2026-05-06 15:53 43.83317 15.75858 35997 ft 414 kts 304°
2026-05-06 15:54 43.87033 15.69757 36004 ft 414 kts 304°
2026-05-06 15:54 43.90742 15.63644 35999 ft 414 kts 304°
2026-05-06 15:55 43.94461 15.57531 36001 ft 415 kts 304°
2026-05-06 15:55 43.98180 15.51402 36005 ft 415 kts 304°
2026-05-06 15:56 44.01886 15.45260 35987 ft 414 kts 304°
2026-05-06 15:56 44.05604 15.39115 35993 ft 416 kts 304°
2026-05-06 15:57 44.09318 15.32940 35989 ft 416 kts 304°
2026-05-06 15:57 44.13029 15.26754 35995 ft 416 kts 304°
2026-05-06 15:58 44.16736 15.20558 35991 ft 416 kts 304°
2026-05-06 15:58 44.20441 15.14369 35982 ft 416 kts 303°
2026-05-06 15:59 44.24146 15.08148 35987 ft 418 kts 303°
2026-05-06 15:59 44.27855 15.01921 35990 ft 417 kts 303°
2026-05-06 16:00 44.31564 14.95689 35991 ft 417 kts 303°
2026-05-06 16:00 44.35266 14.89442 35988 ft 417 kts 303°
2026-05-06 16:01 44.38962 14.83199 35982 ft 417 kts 303°
2026-05-06 16:01 44.42035 14.78000 35982 ft 417 kts 303°
2026-05-06 16:02 44.45724 14.71733 35985 ft 417 kts 303°
2026-05-06 16:02 44.49408 14.65461 35981 ft 417 kts 302°
2026-05-06 16:03 44.53093 14.59183 35985 ft 417 kts 302°
2026-05-06 16:03 44.56772 14.52895 35981 ft 417 kts 302°
2026-05-06 16:04 44.60451 14.46601 35976 ft 417 kts 302°
2026-05-06 16:04 44.64120 14.40306 35972 ft 417 kts 302°
2026-05-06 16:05 44.67786 14.34002 35966 ft 417 kts 302°
2026-05-06 16:05 44.71449 14.27686 35960 ft 417 kts 302°
2026-05-06 16:06 44.75110 14.21358 35956 ft 417 kts 302°
2026-05-06 16:06 44.78786 14.15005 35959 ft 419 kts 302°
2026-05-06 16:07 44.82433 14.08670 35959 ft 419 kts 302°
2026-05-06 16:07 44.86105 14.02290 35958 ft 419 kts 302°
2026-05-06 16:08 44.89770 13.95903 35955 ft 419 kts 302°
2026-05-06 16:08 44.93434 13.89503 35946 ft 419 kts 302°
2026-05-06 16:09 44.97100 13.83088 35937 ft 420 kts 302°
2026-05-06 16:09 45.00770 13.76652 35934 ft 421 kts 302°
2026-05-06 16:10 45.04435 13.70199 35931 ft 421 kts 302°
2026-05-06 16:10 45.08101 13.63731 35933 ft 421 kts 302°
2026-05-06 16:11 45.11769 13.57259 35927 ft 422 kts 302°
2026-05-06 16:11 45.15441 13.50765 35922 ft 422 kts 302°
2026-05-06 16:12 45.19108 13.44260 35921 ft 423 kts 302°
2026-05-06 16:12 45.22937 13.37880 35916 ft 426 kts 305°
2026-05-06 16:13 45.26884 13.31611 35914 ft 426 kts 305°
2026-05-06 16:13 45.30814 13.25308 35917 ft 426 kts 304°
2026-05-06 16:14 45.34725 13.18995 35914 ft 426 kts 305°
2026-05-06 16:14 45.38652 13.12681 35911 ft 424 kts 302°
2026-05-06 16:15 45.42126 13.05963 35913 ft 420 kts 299°
2026-05-06 16:15 45.45531 12.99253 35905 ft 421 kts 299°
2026-05-06 16:16 45.48953 12.92470 35898 ft 422 kts 299°
2026-05-06 16:16 45.52385 12.85680 35894 ft 422 kts 299°
2026-05-06 16:17 45.55810 12.78887 35892 ft 422 kts 299°
2026-05-06 16:17 45.59225 12.72076 35889 ft 422 kts 298°
2026-05-06 16:18 45.62637 12.65258 35891 ft 422 kts 298°
2026-05-06 16:18 45.66048 12.58428 35892 ft 422 kts 298°
2026-05-06 16:19 45.69455 12.51598 35890 ft 422 kts 298°
2026-05-06 16:19 45.72861 12.44755 35893 ft 422 kts 298°
2026-05-06 16:20 45.76261 12.37907 35894 ft 422 kts 298°
2026-05-06 16:20 45.79661 12.31053 35893 ft 422 kts 298°
2026-05-06 16:21 45.83027 12.24237 35895 ft 422 kts 298°
2026-05-06 16:21 45.86416 12.17363 35898 ft 422 kts 298°
2026-05-06 16:22 45.89793 12.10488 35904 ft 421 kts 298°
2026-05-06 16:22 45.93166 12.03602 35906 ft 421 kts 298°
2026-05-06 16:23 45.96538 11.96702 35910 ft 422 kts 298°
2026-05-06 16:23 45.99901 11.89804 35915 ft 421 kts 298°
2026-05-06 16:24 46.03267 11.82903 35922 ft 421 kts 298°
2026-05-06 16:24 46.06626 11.75988 35933 ft 421 kts 298°
2026-05-06 16:25 46.09975 11.69071 35932 ft 421 kts 297°
2026-05-06 16:25 46.13322 11.62138 35935 ft 422 kts 297°
2026-05-06 16:26 46.16671 11.55191 35934 ft 422 kts 297°
2026-05-06 16:26 46.20016 11.48233 35932 ft 422 kts 297°
2026-05-06 16:27 46.23359 11.41265 35921 ft 422 kts 297°
2026-05-06 16:27 46.26698 11.34295 35909 ft 423 kts 298°
2026-05-06 16:28 46.30166 11.27399 35904 ft 424 kts 299°
2026-05-06 16:28 46.33698 11.20552 35895 ft 425 kts 299°
2026-05-06 16:29 46.37206 11.13672 35887 ft 425 kts 298°
2026-05-06 16:29 46.40692 11.06763 35883 ft 425 kts 298°
2026-05-06 16:30 46.43581 11.01019 35870 ft 425 kts 298°
2026-05-06 16:30 46.47643 10.92914 35880 ft 425 kts 298°
2026-05-06 16:31 46.51118 10.85968 35886 ft 425 kts 298°
2026-05-06 16:31 46.54587 10.79026 35873 ft 425 kts 298°
2026-05-06 16:32 46.58054 10.72076 35862 ft 425 kts 298°
2026-05-06 16:32 46.61510 10.65103 35885 ft 425 kts 298°
2026-05-06 16:33 46.64974 10.58117 35887 ft 426 kts 298°
2026-05-06 16:34 46.70154 10.47632 35885 ft 425 kts 297°
2026-05-06 16:34 46.73497 10.40608 35882 ft 420 kts 291°
2026-05-06 16:35 46.75870 10.32967 35883 ft 413 kts 285°
2026-05-06 16:35 46.78094 10.25208 35887 ft 415 kts 285°
2026-05-06 16:36 46.80318 10.17445 35890 ft 414 kts 285°
2026-05-06 16:36 46.82542 10.09689 35892 ft 414 kts 285°
2026-05-06 16:37 46.84757 10.01928 35889 ft 413 kts 285°
2026-05-06 16:37 46.86964 9.94160 35893 ft 415 kts 285°
2026-05-06 16:38 46.89166 9.86363 35892 ft 415 kts 285°
2026-05-06 16:38 46.91370 9.78555 35888 ft 416 kts 285°
2026-05-06 16:39 46.93579 9.70735 35890 ft 416 kts 285°
2026-05-06 16:39 46.95772 9.62899 35890 ft 416 kts 285°
2026-05-06 16:40 46.97958 9.55055 35892 ft 416 kts 285°
2026-05-06 16:40 47.00145 9.47207 35888 ft 417 kts 285°
2026-05-06 16:41 47.02332 9.39337 35889 ft 417 kts 285°
2026-05-06 16:41 47.04517 9.31456 35892 ft 417 kts 285°
2026-05-06 16:42 47.06691 9.23586 35894 ft 417 kts 285°
2026-05-06 16:42 47.08868 9.15690 35890 ft 417 kts 285°
2026-05-06 16:43 47.11034 9.07784 35892 ft 418 kts 285°
2026-05-06 16:43 47.13183 8.99904 35895 ft 418 kts 285°
2026-05-06 16:44 47.15342 8.91983 35893 ft 418 kts 285°
2026-05-06 16:44 47.17446 8.84030 35889 ft 417 kts 284°
2026-05-06 16:45 47.19460 8.76054 35887 ft 417 kts 283°
2026-05-06 16:45 47.21461 8.68053 35880 ft 417 kts 284°
2026-05-06 16:46 47.23484 8.60049 35879 ft 418 kts 284°
2026-05-06 16:46 47.25517 8.52028 35875 ft 419 kts 284°
2026-05-06 16:47 47.27546 8.43978 35882 ft 419 kts 284°
2026-05-06 16:47 47.29571 8.35916 35882 ft 420 kts 284°
2026-05-06 16:48 47.31592 8.27841 35886 ft 420 kts 284°
2026-05-06 16:48 47.33605 8.19748 35887 ft 421 kts 284°
2026-05-06 16:49 47.35620 8.11632 35888 ft 422 kts 284°
2026-05-06 16:49 47.37632 8.03502 35889 ft 422 kts 284°
2026-05-06 16:50 47.39630 7.95349 35886 ft 423 kts 284°
2026-05-06 16:50 47.41300 7.88501 35883 ft 424 kts 284°
2026-05-06 16:51 47.43285 7.80365 35884 ft 424 kts 284°
2026-05-06 16:51 47.45286 7.72162 35886 ft 425 kts 284°
2026-05-06 16:52 47.47101 7.63894 35884 ft 420 kts 278°
2026-05-06 16:52 47.48509 7.55496 35881 ft 421 kts 278°
2026-05-06 16:53 47.49914 7.47092 35879 ft 421 kts 278°
2026-05-06 16:53 47.51315 7.38674 35882 ft 422 kts 278°
2026-05-06 16:54 47.52709 7.30244 35883 ft 422 kts 278°
2026-05-06 16:54 47.54094 7.21812 35880 ft 422 kts 278°
2026-05-06 16:55 47.55471 7.13378 35882 ft 422 kts 278°
2026-05-06 16:55 47.56850 7.04932 35880 ft 422 kts 278°
2026-05-06 16:56 47.58223 6.96474 35882 ft 423 kts 278°
2026-05-06 16:56 47.59582 6.87994 35881 ft 423 kts 278°
2026-05-06 16:57 47.60946 6.79510 35879 ft 424 kts 278°
2026-05-06 16:57 47.62307 6.71004 35865 ft 424 kts 278°
2026-05-06 16:58 47.63663 6.62479 35880 ft 425 kts 278°
2026-05-06 16:58 47.65005 6.53950 35873 ft 425 kts 278°
2026-05-06 16:59 47.66346 6.45399 35877 ft 426 kts 278°
2026-05-06 16:59 47.67692 6.36828 35867 ft 427 kts 278°
2026-05-06 17:00 47.69044 6.28242 35865 ft 429 kts 280°
2026-05-06 17:00 47.70747 6.19727 35882 ft 432 kts 283°
2026-05-06 17:01 47.72667 6.11272 35881 ft 433 kts 284°
2026-05-06 17:01 47.74540 6.02790 35873 ft 432 kts 283°
2026-05-06 17:02 47.76335 5.94271 35880 ft 432 kts 282°
2026-05-06 17:02 47.78094 5.85778 35881 ft 433 kts 282°
2026-05-06 17:03 47.79875 5.77202 35882 ft 434 kts 283°
2026-05-06 17:03 47.81661 5.68625 35887 ft 434 kts 283°
2026-05-06 17:04 47.83439 5.60045 35885 ft 434 kts 282°
2026-05-06 17:04 47.85206 5.51463 35884 ft 434 kts 282°
2026-05-06 17:05 47.86967 5.42873 35885 ft 434 kts 283°
2026-05-06 17:05 47.88723 5.34284 35884 ft 433 kts 283°
2026-05-06 17:06 47.90810 5.25842 35882 ft 439 kts 295°
2026-05-06 17:06 47.94507 5.18529 35886 ft 446 kts 308°
2026-05-06 17:07 47.98680 5.11677 35886 ft 446 kts 308°
2026-05-06 17:07 48.02843 5.04805 35889 ft 446 kts 309°
2026-05-06 17:08 48.07006 4.97914 35891 ft 447 kts 309°
2026-05-06 17:08 48.11163 4.91008 35894 ft 446 kts 309°
2026-05-06 17:09 48.15315 4.84091 35898 ft 447 kts 309°
2026-05-06 17:09 48.19468 4.77169 35901 ft 447 kts 309°
2026-05-06 17:10 48.23614 4.70235 35906 ft 446 kts 309°
2026-05-06 17:10 48.27750 4.63293 35907 ft 446 kts 309°
2026-05-06 17:11 48.31886 4.56349 35907 ft 446 kts 309°
2026-05-06 17:11 48.36008 4.49395 35906 ft 446 kts 309°
2026-05-06 17:12 48.40126 4.42426 35907 ft 445 kts 309°
2026-05-06 17:12 48.44235 4.35448 35909 ft 445 kts 309°
2026-05-06 17:13 48.48339 4.28465 35909 ft 445 kts 309°
2026-05-06 17:13 48.52419 4.21520 35908 ft 445 kts 309°
2026-05-06 17:14 48.56516 4.14514 35911 ft 445 kts 309°
2026-05-06 17:14 48.60610 4.07499 35911 ft 445 kts 309°
2026-05-06 17:15 48.64702 4.00475 35912 ft 445 kts 309°
2026-05-06 17:15 48.68788 3.93436 35918 ft 445 kts 309°
2026-05-06 17:16 48.72867 3.86401 35927 ft 445 kts 310°
2026-05-06 17:16 48.77191 3.79699 35926 ft 445 kts 314°
2026-05-06 17:17 48.81694 3.73248 35932 ft 445 kts 315°
2026-05-06 17:17 48.86166 3.66749 35927 ft 445 kts 314°
2026-05-06 17:18 48.90571 3.60170 35928 ft 444 kts 314°
2026-05-06 17:18 48.94954 3.53554 35930 ft 444 kts 313°
2026-05-06 17:19 48.99330 3.46945 35927 ft 443 kts 314°
2026-05-06 17:19 49.03707 3.40337 35929 ft 443 kts 314°
2026-05-06 17:20 49.08087 3.33723 35929 ft 443 kts 314°
2026-05-06 17:20 49.12463 3.27101 35933 ft 443 kts 314°
2026-05-06 17:21 49.16828 3.20474 35937 ft 442 kts 314°
2026-05-06 17:21 49.21182 3.13827 35939 ft 442 kts 314°
2026-05-06 17:22 49.25528 3.07176 35931 ft 442 kts 313°
2026-05-06 17:22 49.29868 3.00521 35935 ft 442 kts 314°
2026-05-06 17:23 49.34210 2.93857 35934 ft 442 kts 314°
2026-05-06 17:23 49.38519 2.87230 35933 ft 442 kts 314°
2026-05-06 17:24 49.42879 2.80497 35937 ft 441 kts 313°
2026-05-06 17:24 49.47170 2.73849 35935 ft 441 kts 313°
2026-05-06 17:25 49.51489 2.67146 35939 ft 441 kts 314°
2026-05-06 17:25 49.55800 2.60433 35941 ft 441 kts 313°
2026-05-06 17:26 49.60096 2.53701 35939 ft 440 kts 313°
2026-05-06 17:26 49.64206 2.46725 35940 ft 439 kts 309°
2026-05-06 17:27 49.68105 2.39478 35939 ft 439 kts 308°
2026-05-06 17:27 49.71996 2.32203 35938 ft 439 kts 309°
2026-05-06 17:28 49.75930 2.24986 35938 ft 439 kts 309°
2026-05-06 17:28 49.79870 2.17785 35939 ft 438 kts 309°
2026-05-06 17:29 49.83809 2.10569 35938 ft 438 kts 309°
2026-05-06 17:29 49.87731 2.03351 35823 ft 439 kts 309°
2026-05-06 17:29 49.89713 1.99693 34960 ft 445 kts 309°
2026-05-06 17:30 49.91693 1.96029 34449 ft 441 kts 309°
2026-05-06 17:30 49.93655 1.92394 33929 ft 438 kts 309°
2026-05-06 17:30 49.95605 1.88781 33396 ft 435 kts 310°
2026-05-06 17:30 49.97543 1.85186 32877 ft 432 kts 310°
2026-05-06 17:31 49.99462 1.81619 32372 ft 428 kts 310°
2026-05-06 17:31 50.01364 1.78079 31858 ft 425 kts 309°
2026-05-06 17:31 50.03251 1.74561 31355 ft 422 kts 309°
2026-05-06 17:31 50.05121 1.71068 30853 ft 419 kts 309°
2026-05-06 17:32 50.07006 1.67644 30359 ft 415 kts 314°
2026-05-06 17:32 50.09130 1.64631 29881 ft 411 kts 319°
2026-05-06 17:32 50.11278 1.61731 29418 ft 407 kts 319°
2026-05-06 17:32 50.13404 1.58850 28969 ft 403 kts 319°
2026-05-06 17:33 50.15507 1.55994 28499 ft 399 kts 319°
2026-05-06 17:33 50.17588 1.53166 28064 ft 395 kts 318°
2026-05-06 17:33 50.19646 1.50362 27621 ft 390 kts 318°
2026-05-06 17:33 50.21681 1.47587 27182 ft 386 kts 318°
2026-05-06 17:34 50.23694 1.44839 26734 ft 382 kts 318°
2026-05-06 17:34 50.25690 1.42111 26293 ft 379 kts 318°
2026-05-06 17:34 50.27664 1.39409 25858 ft 376 kts 318°
2026-05-06 17:34 50.29623 1.36725 25394 ft 373 kts 317°
2026-05-06 17:35 50.31564 1.34065 24943 ft 370 kts 317°
2026-05-06 17:35 50.33467 1.31459 24479 ft 368 kts 317°
2026-05-06 17:35 50.35387 1.28826 24017 ft 366 kts 317°
2026-05-06 17:36 50.39194 1.23589 23073 ft 362 kts 317°
2026-05-06 17:36 50.41082 1.20982 22610 ft 361 kts 317°
2026-05-06 17:36 50.42961 1.18386 22152 ft 359 kts 317°
2026-05-06 17:36 50.44832 1.15800 21698 ft 358 kts 317°
2026-05-06 17:37 50.46693 1.13224 21260 ft 356 kts 317°
2026-05-06 17:37 50.48541 1.10655 20801 ft 354 kts 317°
2026-05-06 17:37 50.50384 1.08100 20369 ft 352 kts 317°
2026-05-06 17:37 50.51607 1.06358 20070 ft 351 kts 313°
2026-05-06 17:38 50.53269 1.03570 19638 ft 349 kts 312°
2026-05-06 17:38 50.54916 1.00787 19203 ft 347 kts 312°
2026-05-06 17:38 50.56539 0.98052 18778 ft 346 kts 312°
2026-05-06 17:38 50.58178 0.95297 18350 ft 344 kts 312°
2026-05-06 17:39 50.59807 0.92558 17935 ft 342 kts 312°
2026-05-06 17:39 50.61427 0.89828 17518 ft 340 kts 312°
2026-05-06 17:39 50.63034 0.87105 17100 ft 339 kts 312°
2026-05-06 17:39 50.64625 0.84400 16803 ft 333 kts 312°
2026-05-06 17:40 50.66184 0.81751 16412 ft 331 kts 312°
2026-05-06 17:40 50.67757 0.79063 15882 ft 334 kts 311°
2026-05-06 17:40 50.69269 0.76279 15451 ft 333 kts 309°
2026-05-06 17:40 50.70715 0.73458 15091 ft 330 kts 308°
2026-05-06 17:41 50.72133 0.70624 14685 ft 329 kts 308°
2026-05-06 17:41 50.73540 0.67794 14298 ft 327 kts 308°
2026-05-06 17:41 50.74942 0.64986 13914 ft 325 kts 308°
2026-05-06 17:41 50.76344 0.62204 13535 ft 322 kts 308°
2026-05-06 17:42 50.77739 0.59445 13156 ft 320 kts 308°
2026-05-06 17:42 50.79124 0.56708 12765 ft 318 kts 308°
2026-05-06 17:42 50.80494 0.54000 12375 ft 309 kts 308°
2026-05-06 17:42 50.81808 0.51407 12005 ft 297 kts 308°
2026-05-06 17:43 50.83093 0.48875 11512 ft 293 kts 308°
2026-05-06 17:43 50.84359 0.46380 10913 ft 290 kts 309°
2026-05-06 17:43 50.85619 0.43899 10302 ft 287 kts 309°
2026-05-06 17:43 50.86864 0.41442 9672 ft 285 kts 309°
2026-05-06 17:44 50.88097 0.39001 9044 ft 283 kts 309°
2026-05-06 17:44 50.89323 0.36567 8444 ft 284 kts 309°
2026-05-06 17:44 50.90550 0.34130 8095 ft 281 kts 309°
2026-05-06 17:44 50.91652 0.31629 7978 ft 276 kts 295°
2026-05-06 17:45 50.92266 0.28737 7982 ft 278 kts 287°
2026-05-06 17:45 50.92777 0.25781 7982 ft 278 kts 287°
2026-05-06 17:45 50.93275 0.22827 7991 ft 278 kts 286°
2026-05-06 17:45 50.93772 0.19865 7990 ft 278 kts 286°
2026-05-06 17:46 50.94267 0.16908 7856 ft 276 kts 286°
2026-05-06 17:46 50.94762 0.13973 7457 ft 275 kts 286°
2026-05-06 17:46 50.95254 0.11052 7092 ft 274 kts 286°
2026-05-06 17:46 50.95733 0.08183 6971 ft 272 kts 286°
2026-05-06 17:47 50.96216 0.05275 6982 ft 274 kts 286°
2026-05-06 17:47 50.96702 0.02351 6981 ft 274 kts 286°
2026-05-06 17:47 50.97183 -0.00563 6984 ft 273 kts 286°
2026-05-06 17:47 50.97668 -0.03486 6987 ft 273 kts 286°
2026-05-06 17:48 50.98145 -0.06391 6988 ft 272 kts 282°
2026-05-06 17:48 50.98198 -0.09388 6977 ft 274 kts 261°
2026-05-06 17:48 50.97770 -0.12346 6986 ft 275 kts 257°
2026-05-06 17:48 50.97279 -0.15289 6995 ft 276 kts 256°
2026-05-06 17:49 50.96784 -0.18209 6879 ft 273 kts 256°
2026-05-06 17:49 50.96288 -0.21113 6475 ft 272 kts 256°
2026-05-06 17:49 50.95787 -0.24005 6088 ft 271 kts 256°
2026-05-06 17:49 50.95289 -0.26875 5981 ft 270 kts 256°
2026-05-06 17:50 50.94788 -0.29765 5982 ft 272 kts 256°
2026-05-06 17:50 50.94286 -0.32656 5980 ft 272 kts 256°
2026-05-06 17:50 50.94051 -0.35601 5982 ft 269 kts 278°
2026-05-06 17:50 50.94407 -0.38501 5993 ft 268 kts 285°
2026-05-06 17:51 50.94862 -0.41359 5924 ft 267 kts 286°
2026-05-06 17:51 50.95326 -0.44199 5523 ft 265 kts 286°
2026-05-06 17:51 50.95788 -0.47028 5124 ft 265 kts 286°
2026-05-06 17:51 50.96276 -0.49831 4730 ft 262 kts 293°
2026-05-06 17:52 50.97295 -0.52148 4352 ft 256 kts 322°
2026-05-06 17:52 50.98769 -0.53718 4039 ft 254 kts 330°
2026-05-06 17:52 51.00257 -0.55111 4002 ft 239 kts 331°
2026-05-06 17:52 51.01613 -0.56384 3986 ft 215 kts 330°
2026-05-06 17:53 51.02698 -0.57431 3885 ft 201 kts 330°
2026-05-06 17:53 51.03852 -0.58551 3762 ft 193 kts 330°
2026-05-06 17:53 51.04976 -0.59645 3624 ft 186 kts 330°
2026-05-06 17:53 51.06064 -0.60710 3443 ft 182 kts 330°
2026-05-06 17:54 51.07181 -0.61625 3230 ft 180 kts 351°
2026-05-06 17:54 51.08384 -0.61348 3097 ft 178 kts 32°
2026-05-06 17:54 51.09226 -0.59906 3038 ft 181 kts 56°
2026-05-06 17:54 51.09844 -0.58158 3038 ft 182 kts 60°
2026-05-06 17:55 51.10426 -0.56359 3033 ft 183 kts 61°
2026-05-06 17:55 51.11001 -0.54555 3031 ft 183 kts 61°
2026-05-06 17:55 51.11385 -0.52631 3034 ft 185 kts 83°
2026-05-06 17:55 51.11393 -0.50567 3040 ft 187 kts 90°
2026-05-06 17:56 51.11312 -0.48471 3058 ft 190 kts 92°
2026-05-06 17:56 51.11210 -0.46453 3035 ft 175 kts 91°
2026-05-06 17:56 51.11294 -0.44610 3004 ft 160 kts 77°
2026-05-06 17:56 51.11506 -0.42898 2911 ft 156 kts 75°
2026-05-06 17:57 51.11732 -0.41213 2758 ft 158 kts 75°
2026-05-06 17:57 51.11972 -0.39475 2562 ft 162 kts 75°
2026-05-06 17:57 51.12217 -0.37711 2343 ft 164 kts 75°
2026-05-06 17:57 51.12463 -0.35942 2133 ft 164 kts 75°
2026-05-06 17:58 51.12711 -0.34170 1901 ft 164 kts 75°
2026-05-06 17:58 51.12954 -0.32422 1730 ft 160 kts 75°
2026-05-06 17:58 51.13186 -0.30756 1481 ft 148 kts 75°
2026-05-06 17:58 51.13406 -0.29178 1294 ft 144 kts 75°
2026-05-06 17:59 51.13619 -0.27648 1102 ft 142 kts 75°
2026-05-06 17:59 51.13830 -0.26128 925 ft 141 kts 75°
2026-05-06 17:59 51.14045 -0.24590 740 ft 145 kts 74°
2026-05-06 17:59 51.14259 -0.23039 550 ft 143 kts 72°
2026-05-06 18:00 51.14471 -0.21490 355 ft 144 kts 77°
2026-05-06 18:00 51.14698 -0.19953 210 ft 141 kts 76°
2026-05-06 18:00 51.14874 -0.18632 211 ft 103 kts 77°
2026-05-06 18:00 51.14983 -0.17846 211 ft 41 kts 78°
2026-05-06 18:01 51.15018 -0.17585 215 ft 20 kts 78°
2026-05-06 18:01 51.15056 -0.17362 209 ft 22 kts 63°
2026-05-06 18:01 51.15144 -0.17221 206 ft 12 kts 358°
2026-05-06 18:01 51.15214 -0.17184 207 ft 12 kts 23°
2026-05-06 18:02 51.15279 -0.17217 207 ft 9 kts 335°
2026-05-06 18:02 51.15357 -0.17262 205 ft 15 kts 341°
2026-05-06 18:02 51.15466 -0.17291 205 ft 15 kts 349°
2026-05-06 18:02 51.15545 -0.17316 205 ft 12 kts 348°
2026-05-06 18:03 51.15630 -0.17344 209 ft 13 kts 348°
2026-05-06 18:03 51.15652 -0.17351 212 ft 0 kts 348°
2026-05-06 18:04 51.15682 -0.17362 208 ft 7 kts 346°
2026-05-06 18:04 51.15707 -0.17372 205 ft 0 kts 346°
2026-05-06 18:06 51.15748 -0.17381 214 ft 15 kts
2026-05-06 18:06 51.15806 -0.17204 210 ft 17 kts 77°
2026-05-06 18:06 51.15875 -0.17074 209 ft 18 kts 18°
2026-05-06 18:07 51.15957 -0.16964 212 ft 9 kts 58°
2026-05-06 18:07 51.15966 -0.16941 216 ft 1 kts 58°
2026-05-06 18:07 51.15972 -0.16927 215 ft 4 kts 56°
2026-05-06 18:07 51.16011 -0.16940 205 ft 9 kts 334°
2026-05-06 18:08 51.16036 -0.16960 206 ft 0 kts 334°
2026-05-06 18:08 51.16038 -0.16962 205 ft 0 kts 333°